sat.trackr.live / text

‹ back to catalog

STARLINK-1212

NORAD 45223 · 2020-012AX

PAYLOAD ACTIVE UNKNOWN

§ Identity

Operator
Country
US
Launch date
2020-02-17
Launch site
AFETR
Launch vehicle
Mass (kg)
RCS (m²)

Purposes: comms

External: N2YO · Heavens-Above · Gunter

§ Orbital elements

Epoch: 2026-05-25T01:10:29.970336Z

Period
91.98 min
Inclination
53.0412°
Eccentricity
0.0003495
Mean motion
15.65501168 rev/d
Perigee alt
369.4 km
Apogee alt
374.2 km
Semi-major
6,749.9 km
B*
4.7573e-4
RAAN
338.3786°
Arg perigee
106.2310°
Mean anomaly
253.9089°
Rev number
34,755

§ Raw data

STARLINK-12121 45223U 20012AX  26145.04895799  .00048300  00000+0  47573-3 0  99932 45223  53.0412 338.3786 0003495 106.2310 253.9089 15.65501168347553

JSON: /api/v1/satellites/45223 · /tle

For live sub-satellite position, see the globe view (requires WebGL).

§ Visibility from observer

Set your observer location to see the next 7 days of passes ≥ 10°. The values pass through the URL so the page stays shareable.

No JS? Fill the form by hand. The geolocation button needs JavaScript.